TimeCDT,TemperatureF,Dew PointF,Humidity,Sea Level PressureIn,VisibilityMPH,Wind Direction,Wind SpeedMPH,Gust SpeedMPH,PrecipitationIn,Events,Conditions,WindDirDegrees,DateUTC
12:15 AM,35.6,28.4,75,29.95,10.0,Calm,Calm,-,N/A,,Partly Cloudy,0,2012-10-15 05:15:00
12:35 AM,37.4,30.2,75,29.95,10.0,Calm,Calm,-,N/A,,Partly Cloudy,0,2012-10-15 05:35:00
12:55 AM,33.8,26.6,75,29.95,10.0,Calm,Calm,-,N/A,,Clear,0,2012-10-15 05:55:00
1:15 AM,32.0,26.6,80,29.96,10.0,Calm,Calm,-,N/A,,Clear,0,2012-10-15 06:15:00
1:35 AM,35.6,30.2,81,29.96,10.0,Calm,Calm,-,N/A,,Clear,0,2012-10-15 06:35:00
1:55 AM,35.6,30.2,81,29.96,10.0,Calm,Calm,-,N/A,,Clear,0,2012-10-15 06:55:00
2:15 AM,33.8,28.4,81,29.96,10.0,Calm,Calm,-,N/A,,Clear,0,2012-10-15 07:15:00
2:35 AM,33.8,28.4,81,29.96,10.0,Calm,Calm,-,N/A,,Clear,0,2012-10-15 07:35:00
2:55 AM,32.0,28.4,87,29.96,10.0,Calm,Calm,-,N/A,,Clear,0,2012-10-15 07:55:00
3:15 AM,32.0,26.6,80,29.96,10.0,Calm,Calm,-,N/A,,Clear,0,2012-10-15 08:15:00
3:35 AM,30.2,26.6,86,29.97,10.0,Calm,Calm,-,N/A,,Clear,0,2012-10-15 08:35:00
3:55 AM,32.0,26.6,80,29.96,10.0,Calm,Calm,-,N/A,,Clear,0,2012-10-15 08:55:00
4:15 AM,30.2,26.6,86,29.96,10.0,Calm,Calm,-,N/A,,Partly Cloudy,0,2012-10-15 09:15:00
4:55 AM,30.2,26.6,86,29.96,10.0,Calm,Calm,-,N/A,,Partly Cloudy,0,2012-10-15 09:55:00
5:15 AM,30.2,24.8,80,29.95,10.0,Calm,Calm,-,N/A,,Clear,0,2012-10-15 10:15:00
5:35 AM,30.2,26.6,86,29.94,10.0,Calm,Calm,-,N/A,,Clear,0,2012-10-15 10:35:00
5:55 AM,30.2,24.8,80,29.95,10.0,East,3.5,-,N/A,,Clear,90,2012-10-15 10:55:00
6:15 AM,28.4,26.6,93,29.94,10.0,East,6.9,-,N/A,,Clear,80,2012-10-15 11:15:00
6:35 AM,28.4,26.6,93,29.95,10.0,ESE,4.6,-,N/A,,Clear,110,2012-10-15 11:35:00
6:55 AM,28.4,24.8,86,29.96,10.0,Calm,Calm,-,N/A,,Clear,0,2012-10-15 11:55:00
7:15 AM,28.4,26.6,93,29.96,10.0,Calm,Calm,-,N/A,,Clear,0,2012-10-15 12:15:00
7:35 AM,30.2,26.6,86,29.95,10.0,East,3.5,-,N/A,,Clear,100,2012-10-15 12:35:00
7:55 AM,30.2,26.6,86,29.94,7.0,East,6.9,-,N/A,,Clear,90,2012-10-15 12:55:00
8:15 AM,32.0,28.4,87,29.95,7.0,ESE,5.8,-,N/A,,Clear,110,2012-10-15 13:15:00
8:35 AM,33.8,30.2,87,29.95,10.0,ESE,3.5,-,N/A,,Clear,120,2012-10-15 13:35:00
8:55 AM,39.2,32.0,75,29.96,10.0,Calm,Calm,-,N/A,,Clear,0,2012-10-15 13:55:00
9:15 AM,42.8,33.8,70,29.96,10.0,Calm,Calm,-,N/A,,Clear,0,2012-10-15 14:15:00
9:35 AM,48.2,35.6,62,29.96,10.0,SE,4.6,-,N/A,,Clear,140,2012-10-15 14:35:00
9:55 AM,51.8,35.6,54,29.96,-9999.0,SE,8.1,-,N/A,,Clear,140,2012-10-15 14:55:00
10:15 AM,53.6,37.4,54,29.96,10.0,SSE,12.7,-,N/A,,Clear,150,2012-10-15 15:15:00
10:35 AM,57.2,37.4,48,29.96,10.0,SE,11.5,-,N/A,,Clear,140,2012-10-15 15:35:00
10:55 AM,59.0,37.4,45,29.96,10.0,South,10.4,-,N/A,,Clear,170,2012-10-15 15:55:00
11:15 AM,59.0,37.4,45,29.95,10.0,SSE,10.4,-,N/A,,Clear,160,2012-10-15 16:15:00
11:35 AM,60.8,35.6,39,29.94,10.0,SSE,12.7,-,N/A,,Clear,160,2012-10-15 16:35:00
11:55 AM,62.6,35.6,37,29.93,10.0,South,13.8,-,N/A,,Clear,170,2012-10-15 16:55:00
12:15 PM,64.4,37.4,37,29.93,10.0,South,15.0,-,N/A,,Clear,170,2012-10-15 17:15:00
12:35 PM,64.4,37.4,37,29.91,10.0,South,12.7,-,N/A,,Clear,190,2012-10-15 17:35:00
12:55 PM,66.2,35.6,32,29.91,10.0,South,13.8,23.0,N/A,,Clear,180,2012-10-15 17:55:00
1:15 PM,68.0,35.6,30,29.90,10.0,South,12.7,23.0,N/A,,Clear,170,2012-10-15 18:15:00
1:35 PM,68.0,35.6,30,29.88,10.0,SSE,17.3,-,N/A,,Clear,160,2012-10-15 18:35:00
1:55 PM,66.2,37.4,35,29.87,10.0,South,12.7,18.4,N/A,,Clear,170,2012-10-15 18:55:00
2:15 PM,68.0,37.4,33,29.86,10.0,South,13.8,-,N/A,,Clear,180,2012-10-15 19:15:00
2:35 PM,68.0,37.4,33,29.85,10.0,South,15.0,-,N/A,,Clear,180,2012-10-15 19:35:00
2:55 PM,68.0,35.6,30,29.84,10.0,South,16.1,-,N/A,,Clear,170,2012-10-15 19:55:00
3:15 PM,68.0,37.4,33,29.84,10.0,South,13.8,-,N/A,,Clear,170,2012-10-15 20:15:00
3:35 PM,69.8,37.4,31,29.83,10.0,South,15.0,-,N/A,,Clear,170,2012-10-15 20:35:00
3:55 PM,69.8,37.4,31,29.82,10.0,South,12.7,19.6,N/A,,Clear,180,2012-10-15 20:55:00
4:15 PM,69.8,37.4,31,29.82,10.0,South,13.8,21.9,N/A,,Clear,180,2012-10-15 21:15:00
4:35 PM,69.8,35.6,28,29.81,10.0,South,13.8,-,N/A,,Clear,180,2012-10-15 21:35:00
4:55 PM,69.8,37.4,31,29.81,10.0,South,12.7,-,N/A,,Clear,190,2012-10-15 21:55:00
5:15 PM,69.8,37.4,31,29.80,10.0,South,13.8,-,N/A,,Clear,170,2012-10-15 22:15:00
5:35 PM,69.8,37.4,31,29.79,10.0,SSE,12.7,-,N/A,,Clear,160,2012-10-15 22:35:00
5:55 PM,68.0,37.4,33,29.79,10.0,SSE,11.5,-,N/A,,Clear,160,2012-10-15 22:55:00
6:15 PM,64.4,37.4,37,29.78,10.0,SSE,9.2,-,N/A,,Clear,160,2012-10-15 23:15:00
6:35 PM,62.6,37.4,39,29.78,10.0,SSE,10.4,-,N/A,,Clear,160,2012-10-15 23:35:00
6:55 PM,60.8,37.4,42,29.78,10.0,South,10.4,-,N/A,,Clear,170,2012-10-15 23:55:00
7:15 PM,60.8,37.4,42,29.77,10.0,South,9.2,-,N/A,,Clear,170,2012-10-16 00:15:00
7:35 PM,60.8,37.4,42,29.77,10.0,SSE,11.5,-,N/A,,Clear,160,2012-10-16 00:35:00
7:55 PM,59.0,39.2,48,29.77,10.0,SSE,10.4,-,N/A,,Clear,160,2012-10-16 00:55:00
8:15 PM,59.0,39.2,48,29.76,10.0,SSE,12.7,-,N/A,,Clear,160,2012-10-16 01:15:00
8:35 PM,59.0,39.2,48,29.76,10.0,South,11.5,-,N/A,,Clear,170,2012-10-16 01:35:00
8:55 PM,57.2,39.2,51,29.76,10.0,SSE,12.7,-,N/A,,Clear,160,2012-10-16 01:55:00
9:15 PM,57.2,39.2,51,29.76,10.0,SSE,12.7,-,N/A,,Clear,160,2012-10-16 02:15:00
9:35 PM,55.4,39.2,54,29.75,10.0,SSE,12.7,-,N/A,,Clear,160,2012-10-16 02:35:00
9:55 PM,55.4,39.2,54,29.74,10.0,SSE,10.4,-,N/A,,Clear,150,2012-10-16 02:55:00
10:15 PM,55.4,41.0,58,29.74,10.0,South,15.0,-,N/A,,Clear,170,2012-10-16 03:15:00
10:35 PM,57.2,41.0,55,29.73,10.0,South,16.1,-,N/A,,Clear,170,2012-10-16 03:35:00
10:55 PM,57.2,41.0,55,29.72,10.0,South,17.3,-,N/A,,Clear,170,2012-10-16 03:55:00
11:15 PM,55.4,41.0,58,29.72,10.0,South,16.1,23.0,N/A,,Clear,170,2012-10-16 04:15:00
11:35 PM,57.2,41.0,55,29.71,10.0,South,18.4,-,N/A,,Clear,170,2012-10-16 04:35:00
11:55 PM,55.4,41.0,58,29.70,10.0,South,15.0,-,N/A,,Clear,170,2012-10-16 04:55:00